QPF
0.08 0.09 0.11 0.13 0.10 0.07 0.07 0.07 0.04 0.04 0.03 0.03 0.02 0.02 0.02 0.03 0.05 0.06 0.06 0.06 0.07 0.06 0.05 0.05 0.05 0.03 0.06 0.09 0.09 0.08 0.08 0.12 0.14 0.13 0.13 0.15 0.16 0.14
0.05 0.07 0.10 0.10 0.10 0.08 0.07 0.07 0.05 0.05 0.04 0.03 0.03 0.04 0.03 0.02 0.03 0.04 0.05 0.05 0.05 0.06 0.05 0.05 0.05 0.04 0.06 0.09 0.10 0.09 0.07 0.06 0.07 0.10 0.11 0.12 0.17 0.16
0.05 0.07 0.09 0.08 0.09 0.09 0.07 0.06 0.05 0.05 0.05 0.03 0.03 0.02 0.02 0.02 0.02 0.02 0.02 0.02 0.03 0.04 0.04 0.05 0.04 0.05 0.05 0.06 0.08 0.06 0.04 0.04 0.05 0.06 0.07 0.08 0.10 0.14
0.04 0.05 0.07 0.07 0.07 0.07 0.07 0.06 0.05 0.05 0.04 0.03 0.02 0.01 0.01 0.01 0.02 0.01 0.02 0.01 0.02 0.03 0.03 0.04 0.04 0.05 0.07 0.06 0.06 0.05 0.03 0.02 0.03 0.04 0.04 0.05 0.07 0.10
0.03 0.03 0.04 0.05 0.06 0.06 0.06 0.05 0.06 0.05 0.04 0.03 0.02 0.01 0.01 0.01 0.02 0.02 0.02 0.02 0.04 0.05 0.04 0.05 0.06 0.06 0.07 0.07 0.08 0.07 0.05 0.04 0.04 0.04 0.04 0.05 0.05 0.07
0.03 0.02 0.03 0.03 0.04 0.05 0.05 0.05 0.05 0.05 0.04 0.03 0.02 0.02 0.01 0.01 0.01 0.01 0.02 0.01 0.03 0.05 0.05 0.06 0.07 0.05 0.04 0.05 0.07 0.07 0.06 0.06 0.06 0.06 0.05 0.06 0.07 0.07
0.04 0.03 0.03 0.05 0.05 0.06 0.06 0.06 0.06 0.06 0.06 0.05 0.03 0.02 0.02 0.02 0.01 0.02 0.01 0.01 0.02 0.02 0.03 0.04 0.04 0.04 0.04 0.05 0.04 0.04 0.04 0.03 0.04 0.04 0.04 0.06 0.07 0.06
0.07 0.05 0.07 0.08 0.08 0.09 0.08 0.07 0.06 0.06 0.06 0.05 0.04 0.02 0.02 0.01 0.01 0.02 0.02 0.02 0.02 0.02 0.01 0.01 0.01 0.02 0.04 0.04 0.04 0.03 0.03 0.02 0.02 0.02 0.03 0.05 0.05 0.04
0.09 0.07 0.07 0.08 0.07 0.07 0.07 0.06 0.04 0.03 0.03 0.03 0.03 0.03 0.02 0.02 0.02 0.02 0.02 0.02 0.02 0.03 0.03 0.02 0.02 0.01 0.02 0.03 0.03 0.02 0.02 0.01 0.01 0.02 0.04 0.04 0.03 0.02
0.07 0.08 0.07 0.07 0.06 0.05 0.06 0.05 0.03 0.02 0.03 0.03 0.03 0.03 0.03 0.03 0.03 0.03 0.02 0.02 0.02 0.03 0.05 0.05 0.05 0.04 0.04 0.04 0.03 0.02 0.02 0.01 0.01 0.02 0.03 0.02 0.01 0.01
0.07 0.07 0.07 0.07 0.07 0.06 0.06 0.05 0.04 0.03 0.04 0.05 0.05 0.04 0.04 0.04 0.04 0.03 0.03 0.03 0.03 0.03 0.04 0.05 0.05 0.05 0.05 0.04 0.03 0.03 0.02 0.02 0.01 0.02 0.02 0.02 0.01 0.01
0.04 0.04 0.07 0.10 0.10 0.08 0.07 0.06 0.05 0.04 0.03 0.04 0.04 0.04 0.04 0.03 0.04 0.03 0.03 0.03 0.03 0.04 0.04 0.04 0.05 0.06 0.07 0.05 0.03 0.03 0.02 0.02 0.02 0.01 0.01 0.01 0.01 0.01
0.02 0.03 0.04 0.08 0.09 0.09 0.08 0.06 0.05 0.04 0.03 0.03 0.04 0.04 0.05 0.04 0.03 0.02 0.02 0.03 0.03 0.03 0.03 0.03 0.03 0.04 0.04 0.03 0.03 0.02 0.02 0.02 0.02 0.03 0.03 0.03 0.03 0.02
0.03 0.03 0.04 0.06 0.06 0.05 0.05 0.05 0.06 0.05 0.05 0.05 0.06 0.05 0.04 0.03 0.03 0.02 0.02 0.02 0.03 0.03 0.02 0.03 0.03 0.03 0.03 0.04 0.04 0.03 0.03 0.03 0.03 0.04 0.05 0.05 0.06 0.06
0.05 0.05 0.05 0.06 0.05 0.04 0.04 0.04 0.05 0.05 0.05 0.05 0.04 0.03 0.02 0.01 0.02 0.02 0.03 0.04 0.03 0.02 0.02 0.02 0.03 0.03 0.04 0.05 0.05 0.05 0.05 0.05 0.04 0.04 0.04 0.04 0.05 0.05
0.04 0.06 0.06 0.05 0.04 0.03 0.03 0.03 0.03 0.04 0.04 0.03 0.02 0.02 0.01 0.02 0.03 0.03 0.03 0.03 0.03 0.02 0.01 0.02 0.02 0.03 0.04 0.05 0.05 0.05 0.04 0.04 0.03 0.04 0.04 0.04 0.04 0.05
0.06 0.07 0.06 0.05 0.04 0.03 0.02 0.02 0.02 0.02 0.03 0.03 0.02 0.02 0.02 0.02 0.02 0.03 0.02 0.02 0.03 0.02 0.02 0.01 0.02 0.03 0.05 0.07 0.07 0.07 0.06 0.05 0.04 0.04 0.04 0.04 0.04 0.04
0.07 0.06 0.04 0.04 0.03 0.03 0.03 0.02 0.01 0.01 0.01 0.03 0.03 0.03 0.02 0.02 0.02 0.02 0.02 0.02 0.02 0.02 0.02 0.02 0.02 0.02 0.05 0.06 0.06 0.06 0.06 0.06 0.06 0.05 0.05 0.04 0.03 0.04
0.06 0.05 0.02 0.02 0.02 0.01 0.01 0.01 0.01 0.01 0.01 0.01 0.02 0.03 0.03 0.02 0.02 0.02 0.02 0.02 0.02 0.02 0.02 0.03 0.04 0.05 0.06 0.06 0.06 0.06 0.05 0.05 0.05 0.05 0.04 0.04 0.03 0.03
0.03 0.03 0.02 0.01 0.01 0.01 0.01 0.00 0.00 0.00 0.00 0.00 0.01 0.02 0.03 0.03 0.03 0.02 0.02 0.03 0.03 0.04 0.04 0.04 0.05 0.05 0.05 0.05 0.05 0.06 0.05 0.04 0.03 0.02 0.03 0.03 0.04 0.04
0.02 0.02 0.01 0.01 0.01 0.01 0.01 0.00 0.00 0.00 0.00 0.00 0.00 0.01 0.01 0.03 0.04 0.05 0.04 0.04 0.04 0.04 0.05 0.06 0.06 0.05 0.03 0.03 0.03 0.03 0.04 0.04 0.04 0.03 0.02 0.03 0.03 0.03
0.02 0.01 0.01 0.01 0.01 0.01 0.01 0.01 0.01 0.01 0.01 0.01 0.01 0.01 0.01 0.01 0.03 0.05 0.06 0.06 0.07 0.06 0.05 0.05 0.05 0.06 0.05 0.05 0.05 0.04 0.03 0.03 0.03 0.03 0.02 0.03 0.03 0.02
0.01 0.02 0.02 0.02 0.02 0.01 0.01 0.01 0.01 0.01 0.01 0.01 0.01 0.01 0.01 0.01 0.01 0.03 0.04 0.05 0.08 0.09 0.08 0.07 0.07 0.08 0.07 0.07 0.06 0.05 0.04 0.03 0.02 0.02 0.02 0.02 0.03 0.03
MSLP
1016.90 1016.96 1017.09 1017.27 1017.50 1017.75 1018.00 1018.23 1018.41 1018.53 1018.58 1018.55 1018.44 1018.25 1017.99 1017.67 1017.31 1016.92 1016.54 1016.18 1015.86 1015.59 1015.35 1015.15 1014.97 1014.78 1014.57 1014.32 1014.05 1013.76 1013.46 1013.17 1012.92 1012.71 1012.55 1012.44 1012.36 1012.29
1017.49 1017.56 1017.67 1017.82 1018.01 1018.21 1018.40 1018.58 1018.72 1018.80 1018.83 1018.78 1018.67 1018.47 1018.21 1017.89 1017.53 1017.15 1016.77 1016.41 1016.10 1015.83 1015.62 1015.44 1015.28 1015.11 1014.93 1014.71 1014.46 1014.18 1013.90 1013.63 1013.39 1013.21 1013.07 1012.99 1012.93 1012.88
1018.09 1018.17 1018.28 1018.42 1018.58 1018.74 1018.90 1019.04 1019.14 1019.20 1019.21 1019.15 1019.03 1018.83 1018.57 1018.24 1017.87 1017.48 1017.08 1016.71 1016.39 1016.11 1015.88 1015.70 1015.54 1015.38 1015.20 1015.00 1014.76 1014.49 1014.22 1013.96 1013.74 1013.57 1013.45 1013.39 1013.35 1013.32
1018.68 1018.78 1018.90 1019.04 1019.19 1019.33 1019.47 1019.58 1019.66 1019.71 1019.70 1019.64 1019.51 1019.32 1019.05 1018.72 1018.35 1017.94 1017.53 1017.13 1016.77 1016.47 1016.21 1016.00 1015.82 1015.64 1015.46 1015.24 1015.00 1014.73 1014.45 1014.20 1013.98 1013.81 1013.70 1013.64 1013.62 1013.60
1019.25 1019.37 1019.51 1019.65 1019.79 1019.92 1020.04 1020.14 1020.20 1020.24 1020.23 1020.17 1020.05 1019.86 1019.61 1019.29 1018.91 1018.50 1018.07 1017.65 1017.26 1016.92 1016.62 1016.37 1016.15 1015.94 1015.72 1015.48 1015.22 1014.94 1014.65 1014.38 1014.14 1013.96 1013.84 1013.77 1013.74 1013.72
1019.77 1019.91 1020.05 1020.20 1020.33 1020.44 1020.54 1020.62 1020.67 1020.70 1020.69 1020.64 1020.54 1020.38 1020.15 1019.85 1019.49 1019.08 1018.65 1018.21 1017.80 1017.42 1017.08 1016.78 1016.51 1016.26 1016.01 1015.74 1015.45 1015.14 1014.82 1014.52 1014.26 1014.05 1013.89 1013.80 1013.74 1013.71
1020.23 1020.37 1020.51 1020.64 1020.75 1020.84 1020.91 1020.96 1021.00 1021.01 1021.00 1020.97 1020.89 1020.76 1020.57 1020.32 1019.99 1019.61 1019.19 1018.76 1018.32 1017.91 1017.53 1017.19 1016.88 1016.58 1016.29 1015.98 1015.66 1015.32 1014.97 1014.64 1014.34 1014.09 1013.89 1013.75 1013.66 1013.59
1020.60 1020.73 1020.86 1020.96 1021.04 1021.09 1021.12 1021.13 1021.14 1021.14 1021.13 1021.11 1021.07 1020.98 1020.84 1020.64 1020.36 1020.02 1019.63 1019.21 1018.77 1018.34 1017.93 1017.55 1017.20 1016.86 1016.52 1016.18 1015.83 1015.46 1015.08 1014.71 1014.37 1014.08 1013.83 1013.65 1013.51 1013.40
1020.87 1020.99 1021.09 1021.16 1021.19 1021.20 1021.18 1021.15 1021.12 1021.10 1021.09 1021.09 1021.07 1021.03 1020.95 1020.81 1020.59 1020.30 1019.95 1019.54 1019.11 1018.67 1018.23 1017.82 1017.42 1017.05 1016.68 1016.31 1015.92 1015.52 1015.12 1014.72 1014.35 1014.01 1013.72 1013.49 1013.30 1013.16
1021.05 1021.16 1021.23 1021.26 1021.26 1021.21 1021.15 1021.08 1021.01 1020.97 1020.96 1020.96 1020.98 1020.99 1020.96 1020.87 1020.71 1020.47 1020.16 1019.77 1019.34 1018.89 1018.43 1017.98 1017.55 1017.14 1016.73 1016.33 1015.92 1015.50 1015.08 1014.65 1014.25 1013.88 1013.55 1013.27 1013.04 1012.85
1021.15 1021.26 1021.32 1021.32 1021.28 1021.20 1021.09 1020.98 1020.89 1020.84 1020.82 1020.84 1020.88 1020.92 1020.94 1020.90 1020.79 1020.59 1020.30 1019.93 1019.50 1019.02 1018.54 1018.05 1017.58 1017.13 1016.69 1016.26 1015.83 1015.39 1014.95 1014.51 1014.08 1013.68 1013.31 1013.00 1012.73 1012.50
1021.19 1021.30 1021.36 1021.36 1021.30 1021.20 1021.07 1020.94 1020.84 1020.77 1020.75 1020.78 1020.85 1020.92 1020.97 1020.96 1020.88 1020.70 1020.42 1020.05 1019.60 1019.11 1018.59 1018.06 1017.55 1017.06 1016.58 1016.13 1015.68 1015.22 1014.77 1014.31 1013.86 1013.44 1013.04 1012.68 1012.37 1012.10
1021.17 1021.31 1021.38 1021.39 1021.33 1021.22 1021.10 1020.97 1020.86 1020.80 1020.79 1020.83 1020.91 1021.00 1021.07 1021.08 1021.00 1020.83 1020.54 1020.16 1019.69 1019.16 1018.59 1018.03 1017.47 1016.94 1016.44 1015.96 1015.49 1015.02 1014.56 1014.09 1013.63 1013.17 1012.75 1012.35 1012.00 1011.68
1021.11 1021.27 1021.36 1021.39 1021.35 1021.26 1021.15 1021.04 1020.95 1020.90 1020.91 1020.96 1021.05 1021.15 1021.22 1021.23 1021.15 1020.96 1020.66 1020.24 1019.74 1019.17 1018.57 1017.97 1017.38 1016.81 1016.28 1015.78 1015.30 1014.83 1014.35 1013.88 1013.40 1012.92 1012.47 1012.04 1011.64 1011.28
1021.00 1021.18 1021.29 1021.34 1021.33 1021.27 1021.18 1021.10 1021.04 1021.02 1021.05 1021.12 1021.22 1021.32 1021.38 1021.37 1021.27 1021.06 1020.73 1020.29 1019.75 1019.15 1018.52 1017.89 1017.27 1016.69 1016.14 1015.63 1015.14 1014.67 1014.19 1013.71 1013.22 1012.73 1012.24 1011.77 1011.33 1010.92
1020.83 1021.02 1021.15 1021.21 1021.22 1021.20 1021.15 1021.10 1021.08 1021.10 1021.15 1021.24 1021.34 1021.43 1021.48 1021.46 1021.33 1021.09 1020.74 1020.27 1019.71 1019.09 1018.45 1017.80 1017.17 1016.58 1016.04 1015.53 1015.04 1014.56 1014.09 1013.60 1013.11 1012.60 1012.09 1011.59 1011.11 1010.65
1020.61 1020.78 1020.91 1020.99 1021.02 1021.03 1021.02 1021.02 1021.04 1021.09 1021.17 1021.28 1021.39 1021.47 1021.51 1021.46 1021.31 1021.05 1020.67 1020.19 1019.62 1019.00 1018.36 1017.72 1017.10 1016.52 1015.98 1015.48 1015.00 1014.54 1014.07 1013.59 1013.09 1012.57 1012.04 1011.52 1011.00 1010.49
1020.33 1020.48 1020.60 1020.68 1020.73 1020.77 1020.80 1020.85 1020.91 1021.00 1021.12 1021.24 1021.36 1021.44 1021.46 1021.40 1021.23 1020.95 1020.57 1020.09 1019.53 1018.92 1018.30 1017.68 1017.08 1016.53 1016.01 1015.52 1015.06 1014.61 1014.14 1013.67 1013.16 1012.64 1012.10 1011.55 1011.00 1010.46
1020.01 1020.14 1020.25 1020.34 1020.41 1020.48 1020.56 1020.65 1020.76 1020.89 1021.04 1021.18 1021.31 1021.39 1021.40 1021.32 1021.15 1020.86 1020.48 1020.01 1019.48 1018.90 1018.31 1017.72 1017.16 1016.64 1016.14 1015.67 1015.22 1014.77 1014.31 1013.83 1013.33 1012.80 1012.25 1011.68 1011.11 1010.54
1019.68 1019.80 1019.91 1020.01 1020.11 1020.22 1020.34 1020.49 1020.65 1020.82 1021.00 1021.17 1021.30 1021.38 1021.38 1021.30 1021.12 1020.84 1020.48 1020.03 1019.53 1018.99 1018.44 1017.90 1017.37 1016.87 1016.40 1015.94 1015.49 1015.04 1014.57 1014.08 1013.57 1013.04 1012.47 1011.90 1011.31 1010.72
1019.35 1019.48 1019.60 1019.74 1019.88 1020.04 1020.22 1020.42 1020.64 1020.86 1021.07 1021.25 1021.39 1021.47 1021.47 1021.38 1021.20 1020.93 1020.59 1020.17 1019.71 1019.22 1018.72 1018.22 1017.72 1017.25 1016.78 1016.32 1015.87 1015.40 1014.92 1014.42 1013.89 1013.34 1012.77 1012.19 1011.59 1010.98
1019.04 1019.20 1019.37 1019.56 1019.76 1019.99 1020.23 1020.49 1020.75 1021.01 1021.24 1021.44 1021.58 1021.65 1021.65 1021.56 1021.39 1021.14 1020.82 1020.44 1020.02 1019.58 1019.12 1018.66 1018.20 1017.74 1017.28 1016.82 1016.35 1015.86 1015.35 1014.82 1014.28 1013.71 1013.13 1012.54 1011.94 1011.32
1018.74 1018.97 1019.20 1019.46 1019.74 1020.03 1020.34 1020.65 1020.96 1021.25 1021.50 1021.70 1021.84 1021.91 1021.90 1021.81 1021.64 1021.41 1021.12 1020.78 1020.41 1020.02 1019.61 1019.20 1018.77 1018.32 1017.87 1017.39 1016.90 1016.38 1015.85 1015.29 1014.73 1014.15 1013.56 1012.97 1012.36 1011.75
Thickness
5737 5735 5733 5732 5731 5729 5727 5724 5719 5715 5717 5720 5722 5724 5723 5723 5722 5722 5721 5721 5720 5719 5717 5716 5715 5713 5712 5711 5711 5712 5712 5711 5710 5709 5708 5707 5706 5705
5734 5732 5731 5730 5728 5726 5724 5723 5720 5716 5714 5717 5717 5719 5719 5719 5718 5718 5717 5717 5716 5716 5714 5713 5711 5710 5709 5708 5708 5708 5709 5708 5707 5706 5704 5703 5703 5701
5731 5729 5728 5727 5725 5723 5721 5719 5717 5715 5711 5713 5714 5714 5714 5713 5713 5712 5712 5712 5711 5711 5710 5709 5708 5706 5705 5703 5703 5704 5704 5704 5703 5701 5700 5699 5698 5698
5728 5726 5724 5724 5721 5719 5717 5715 5714 5712 5709 5707 5708 5708 5708 5708 5707 5706 5706 5706 5706 5705 5705 5704 5703 5701 5700 5699 5699 5698 5698 5698 5697 5696 5695 5694 5693 5693
5725 5722 5721 5719 5717 5715 5713 5711 5710 5708 5705 5703 5703 5703 5702 5702 5700 5700 5700 5699 5700 5699 5699 5698 5697 5696 5696 5695 5694 5693 5692 5691 5691 5690 5689 5688 5688 5687
5721 5719 5717 5715 5713 5711 5709 5707 5705 5702 5700 5698 5697 5696 5696 5695 5693 5692 5692 5693 5693 5693 5692 5692 5691 5690 5690 5689 5688 5687 5686 5685 5684 5684 5683 5683 5682 5681
5717 5715 5714 5712 5710 5708 5706 5703 5700 5697 5695 5692 5691 5690 5689 5687 5686 5686 5685 5685 5686 5685 5685 5684 5684 5683 5683 5682 5681 5680 5679 5678 5677 5677 5676 5676 5675 5675
5711 5711 5710 5708 5706 5704 5702 5700 5697 5693 5690 5688 5686 5684 5683 5682 5680 5679 5677 5677 5677 5678 5677 5677 5676 5676 5676 5676 5675 5674 5672 5671 5671 5670 5670 5669 5668 5667
5705 5704 5703 5703 5700 5698 5696 5694 5691 5689 5687 5684 5681 5679 5677 5676 5674 5672 5671 5670 5669 5670 5668 5669 5669 5668 5669 5669 5668 5667 5666 5665 5664 5663 5662 5661 5660 5660
5699 5697 5696 5694 5694 5691 5689 5687 5684 5682 5680 5678 5676 5674 5672 5670 5668 5666 5664 5663 5663 5661 5659 5659 5660 5660 5661 5660 5660 5659 5658 5657 5656 5655 5654 5654 5653 5652
5694 5691 5689 5687 5686 5683 5681 5679 5676 5674 5673 5671 5669 5666 5664 5662 5659 5657 5655 5654 5653 5653 5651 5650 5651 5651 5652 5652 5652 5651 5650 5649 5648 5647 5647 5646 5645 5644
5686 5684 5682 5679 5677 5674 5672 5670 5667 5666 5664 5662 5660 5658 5656 5655 5652 5650 5648 5646 5644 5644 5644 5642 5643 5642 5643 5644 5643 5642 5641 5640 5640 5640 5639 5638 5637 5636
5679 5676 5674 5672 5669 5666 5664 5662 5660 5658 5655 5654 5652 5650 5649 5647 5645 5643 5641 5639 5638 5637 5636 5634 5635 5634 5633 5634 5634 5634 5633 5632 5632 5631 5631 5631 5630 5629
5671 5669 5666 5663 5660 5658 5656 5654 5652 5650 5647 5646 5644 5643 5642 5640 5638 5636 5634 5632 5631 5630 5629 5628 5627 5625 5624 5624 5625 5625 5624 5624 5623 5623 5622 5622 5622 5621
5664 5661 5658 5655 5653 5650 5648 5646 5644 5642 5639 5637 5635 5634 5633 5632 5630 5628 5626 5624 5623 5622 5622 5620 5619 5618 5617 5616 5616 5616 5616 5616 5615 5614 5613 5613 5613 5613
5656 5653 5650 5647 5645 5642 5640 5638 5636 5633 5631 5629 5627 5626 5624 5623 5622 5620 5618 5616 5615 5614 5613 5612 5611 5610 5609 5608 5608 5607 5607 5607 5606 5605 5605 5605 5605 5605
5647 5643 5641 5639 5636 5634 5631 5629 5627 5624 5622 5620 5618 5616 5615 5614 5612 5610 5609 5607 5606 5605 5605 5603 5602 5600 5600 5599 5598 5599 5599 5598 5598 5597 5596 5597 5597 5597
5637 5635 5632 5629 5627 5625 5622 5619 5617 5615 5613 5611 5609 5607 5606 5605 5603 5601 5599 5597 5596 5595 5594 5593 5592 5591 5590 5589 5588 5589 5589 5589 5589 5588 5588 5589 5590 5589
5630 5627 5623 5621 5618 5616 5614 5611 5609 5606 5604 5601 5600 5598 5596 5595 5593 5592 5590 5587 5586 5585 5584 5582 5581 5580 5579 5580 5580 5578 5578 5579 5579 5579 5580 5581 5582 5582
5622 5619 5616 5613 5611 5608 5606 5603 5601 5598 5595 5593 5591 5589 5587 5585 5583 5582 5580 5578 5577 5575 5574 5572 5571 5570 5570 5570 5570 5569 5568 5569 5570 5570 5571 5571 5571 5572
5614 5611 5608 5605 5603 5600 5598 5595 5592 5589 5586 5584 5582 5579 5577 5575 5574 5572 5571 5568 5567 5567 5566 5565 5564 5562 5561 5560 5560 5561 5560 5559 5560 5560 5561 5561 5562 5563
5607 5604 5601 5597 5594 5592 5589 5586 5583 5581 5578 5576 5573 5571 5569 5567 5565 5564 5563 5561 5560 5559 5558 5557 5555 5553 5552 5551 5552 5552 5552 5551 5550 5551 5551 5552 5553 5555
5600 5597 5594 5590 5586 5583 5580 5577 5575 5572 5569 5567 5564 5562 5560 5558 5557 5556 5555 5553 5552 5551 5550 5549 5547 5545 5543 5542 5542 5543 5542 5542 5542 5543 5542 5542 5543 5545